星链-2039 (STARLINK-2039 )

导读

STARLINK-2039(星链-2039)是美国SpaceX公司星链计划中第五批部署的低轨通信卫星,于北京时间2021年2月16日发射升空,目前仍在轨运行。它运行在约550公里高度近地轨道,属于Starlink V1.0平台,设计寿命5-7年,旨在与其他星链卫星协同,为全球尤其是偏远地区提供高速低延迟互联网服务,推进SpaceX全球宽带网络的构建。

Basic Information
目录编号:
47655
目录名称:
STARLINK-2039
国际标识:
2021-012AM
轨道中心:
EARTH
卫星名称:
星链-2039
卫星全名:
星链-2039 (STARLINK-2039 )
卫星状态:
在轨 (已飞行2026 天)
发射日期:
2021-02-16 UTC
国别 :
美国 (US)
星等 :
--
Orbit Information
数据来源 国际轨道数据 AOE轨道数据
星历时间 2026-09-04T00:10:42+0800
13小时前
查看轨道信息
2026-09-03T08:00:00+0800
1天前
查看轨道信息
半长轴 6840.074km 6840.147km
偏心率 0.0004273 0.0004506
轨道倾角 53.159° 53.158°
近地点辐角 6.441° 6.375°
升交点赤经 316.358° 319.511°
平近点角 353.665° 227.524°
近地点 459.014km 458.927km
远地点 464.86km 465.093km
周期 93.832分钟 93.833分钟
每日圈数 15.34658 15.346335
Detailed Information
固有亮度:
5
最大亮度:
2.5
卫星平台:
Starlink V1.0
覆盖范围:
全球
运营商:
太空探索技术公司
运营商所在国:
美国
制造商(研发单位):
太空探索技术公司
制造商所在国:
美国
使用方式:
暂无
Satellite Introduction
星链(Starlink)计划是由太空探索技术公司(SpaceX)提出的一个巨型低轨卫星互联网星座项目,计划在2019年至2024年间在太空搭建由约1.2万颗卫星组成的“星链”网络,其中1584颗将部署在地球上空550千米处的近地轨道,并从2020年开始工作。该卫星仍在工作。
2D Orbit Map
3D Orbit Map
Orbit Altitude Analysis Chart
Orbit Inclination Analysis Chart
Orbit Comprehensive Analysis Chart
View Comprehensive Chart
Conjunction Data List
Event ID Objects TCA Miss Dist (km) Collision Risk Probability Collision Risk Index (CRI) Action
CDM_260904-133404-765506-693221
2026-09-04T
13:34:21+0000
0.428 km
远距离
1.860943E-4 高风险 0.8
CDM_260903-150404-765506-426721
2026-09-03T
15:04:13+0000
0.420 km
远距离
1.626933E-4 高风险 0.79
CDM_260905-112904-765505-188421
2026-09-05T
11:29:04+0000
0.784 km
远距离
2.854633E-5 中风险 0.64
CDM_260830-075604-765506-518422
2026-08-30T
07:56:38+0000
1.092 km
极远距离
1.906069E-5 中风险 0.61
CDM_260903-052604-765506-564921
2026-09-03T
05:26:11+0000
1.070 km
极远距离
1.672913E-5 中风险 0.59
CDM_260905-054904-765506-321021
2026-09-05T
05:49:15+0000
1.242 km
极远距离
1.265908E-5 中风险 0.57
CDM_260904-041104-765506-945421
2026-09-04T
04:11:20+0000
1.093 km
极远距离
1.194684E-5 中风险 0.57
CDM_260904-142104-765506-693221
2026-09-04T
14:21:14+0000
1.180 km
极远距离
8.895128E-6 低风险 0.54
CDM_260903-110404-765506-806221
2026-09-03T
11:04:29+0000
1.226 km
极远距离
3.4313E-6 低风险 0.46
CDM_260903-060404-765506-895221
2026-09-03T
06:04:59+0000
1.906 km
极远距离
2.850629E-6 低风险 0.44